owner,sensor,date,latitude,longitude,vertical_datum,direction_of_sea_water_velocity,sea_water_speed,upward_sea_water_velocity,qcFlag 
TABS,ioos:station:wmo:42049:1,2011-02-01T00:00:00Z,28.3507,-96.0058,2.0,218.0153611,5.0009999,-99999.0,'11133222,11111222,99999999' 
TABS,ioos:station:wmo:42049:1,2011-02-01T00:30:00Z,28.3507,-96.0058,2.0,219.0472388,6.000333324,-99999.0,'11133222,11111222,99999999' 
TABS,ioos:station:wmo:42049:1,2011-02-01T01:00:00Z,28.3507,-96.0058,2.0,233.9891379,10.00112494,-99999.0,'11111222,11111222,99999999' 
TABS,ioos:station:wmo:42049:1,2011-02-01T01:30:00Z,28.3507,-96.0058,2.0,247.9935649,12.99689963,-99999.0,'11111222,11111222,99999999' 
TABS,ioos:station:wmo:42049:1,2011-02-01T02:00:00Z,28.3507,-96.0058,2.0,248.98856,14.00090354,-99999.0,'11111222,11111222,99999999' 
TABS,ioos:station:wmo:42049:1,2011-02-01T02:30:00Z,28.3507,-96.0058,2.0,256.9969406,16.00025312,-99999.0,'11111222,11111222,99999999' 
TABS,ioos:station:wmo:42049:1,2011-02-01T03:00:00Z,28.3507,-96.0058,2.0,256.9969406,16.00025312,-99999.0,'11111222,11111222,99999999' 
TABS,ioos:station:wmo:42049:1,2011-02-01T03:30:00Z,28.3507,-96.0058,2.0,275.0119421,19.00264455,-99999.0,'11111222,11111222,99999999' 
TABS,ioos:station:wmo:42049:1,2011-02-01T04:00:00Z,28.3507,-96.0058,2.0,270.0004209,17.0,-99999.0,'11111222,11111222,99999999' 
TABS,ioos:station:wmo:42049:1,2011-02-01T04:30:00Z,28.3507,-96.0058,2.0,279.0107433,15.00516244,-99999.0,'11111222,11111222,99999999' 
TABS,ioos:station:wmo:42049:1,2011-02-01T05:00:00Z,28.3507,-96.0058,2.0,287.9877135,17.0009235,-99999.0,'11111222,11111222,99999999' 
TABS,ioos:station:wmo:42049:1,2011-02-01T05:30:00Z,28.3507,-96.0058,2.0,295.2240215,16.23830348,-99999.0,'11111222,11111222,99999999' 
TABS,ioos:station:wmo:42049:1,2011-02-01T06:00:00Z,28.3507,-96.0058,2.0,292.8004817,14.91545842,-99999.0,'11111222,11111222,99999999' 
TABS,ioos:station:wmo:42049:1,2011-02-01T06:30:00Z,28.3507,-96.0058,2.0,293.9216307,12.70096847,-99999.0,'11111222,11111222,99999999' 
TABS,ioos:station:wmo:42049:1,2011-02-01T07:00:00Z,28.3507,-96.0058,2.0,299.2583125,13.13575274,-99999.0,'11111222,11111222,99999999' 
TABS,ioos:station:wmo:42049:1,2011-02-01T07:30:00Z,28.3507,-96.0058,2.0,299.2448242,13.77582302,-99999.0,'11111222,11111222,99999999' 
TABS,ioos:station:wmo:42049:1,2011-02-01T08:00:00Z,28.3507,-96.0058,2.0,307.8398827,15.60023397,-99999.0,'11111222,11111222,99999999' 
TABS,ioos:station:wmo:42049:1,2011-02-01T08:30:00Z,28.3507,-96.0058,2.0,308.7131482,11.81611188,-99999.0,'11111222,11111222,99999999' 
TABS,ioos:station:wmo:42049:1,2011-02-01T09:00:00Z,28.3507,-96.0058,2.0,311.5164094,10.93794313,-99999.0,'11111222,11111222,99999999' 
TABS,ioos:station:wmo:42049:1,2011-02-01T09:30:00Z,28.3507,-96.0058,2.0,310.9396894,8.088392918,-99999.0,'11133222,11111222,99999999' 
TABS,ioos:station:wmo:42049:1,2011-02-01T10:00:00Z,28.3507,-96.0058,2.0,304.6333765,7.583778741,-99999.0,'11133222,11111222,99999999' 
TABS,ioos:station:wmo:42049:1,2011-02-01T10:30:00Z,28.3507,-96.0058,2.0,302.1403523,6.767045145,-99999.0,'11133222,11111222,99999999' 
TABS,ioos:station:wmo:42049:1,2011-02-01T11:00:00Z,28.3507,-96.0058,2.0,296.9856639,5.487458428,-99999.0,'11133222,11111222,99999999' 
TABS,ioos:station:wmo:42049:1,2011-02-01T11:30:00Z,28.3507,-96.0058,2.0,285.3928092,5.123787661,-99999.0,'11133222,11111222,99999999' 
TABS,ioos:station:wmo:42049:1,2011-02-01T12:00:00Z,28.3507,-96.0058,2.0,252.6371655,4.054750301,-99999.0,'11133222,11111222,99999999' 
TABS,ioos:station:wmo:42049:1,2011-02-01T12:30:00Z,28.3507,-96.0058,2.0,227.5006631,3.078847187,-99999.0,'11133222,11111222,99999999' 
TABS,ioos:station:wmo:42049:1,2011-02-01T13:00:00Z,28.3507,-96.0058,2.0,202.0004364,6.406527921,-99999.0,'11133222,11111222,99999999' 
TABS,ioos:station:wmo:42049:1,2011-02-01T13:30:00Z,28.3507,-96.0058,2.0,156.5081258,23.35578087,-99999.0,'11111222,11111222,99999999' 
TABS,ioos:station:wmo:42049:1,2011-02-01T14:00:00Z,28.3507,-96.0058,2.0,173.0371639,31.51239121,-99999.0,'11111222,11111222,99999999' 
TABS,ioos:station:wmo:42049:1,2011-02-01T14:30:00Z,28.3507,-96.0058,2.0,179.1533627,34.52376718,-99999.0,'11111222,11111222,99999999' 
TABS,ioos:station:wmo:42049:1,2011-02-01T15:00:00Z,28.3507,-96.0058,2.0,187.4156276,38.11884573,-99999.0,'11111222,11111222,99999999' 
TABS,ioos:station:wmo:42049:1,2011-02-01T15:30:00Z,28.3507,-96.0058,2.0,187.8392287,42.3760404,-99999.0,'11111222,11111222,99999999' 
TABS,ioos:station:wmo:42049:1,2011-02-01T16:00:00Z,28.3507,-96.0058,2.0,193.9777137,40.53014927,-99999.0,'11111222,11111222,99999999' 
TABS,ioos:station:wmo:42049:1,2011-02-01T16:30:00Z,28.3507,-96.0058,2.0,203.9799511,36.0955579,-99999.0,'11111222,11111222,99999999' 
TABS,ioos:station:wmo:42049:1,2011-02-01T17:00:00Z,28.3507,-96.0058,2.0,197.992249,39.72255405,-99999.0,'11111222,11111222,99999999' 
TABS,ioos:station:wmo:42049:1,2011-02-01T17:30:00Z,28.3507,-96.0058,2.0,200.971314,41.79883372,-99999.0,'11111222,11111222,99999999' 
TABS,ioos:station:wmo:42049:1,2011-02-01T18:00:00Z,28.3507,-96.0058,2.0,211.0253313,38.1241577,-99999.0,'11111222,11111222,99999999' 
TABS,ioos:station:wmo:42049:1,2011-02-01T18:30:00Z,28.3507,-96.0058,2.0,209.5092087,37.43647954,-99999.0,'11111222,11111222,99999999' 
TABS,ioos:station:wmo:42049:1,2011-02-01T19:00:00Z,28.3507,-96.0058,2.0,213.6072673,38.51842157,-99999.0,'11111222,11111222,99999999' 
TABS,ioos:station:wmo:42049:1,2011-02-01T19:30:00Z,28.3507,-96.0058,2.0,219.1143068,34.82472254,-99999.0,'11111222,11111222,99999999' 
TABS,ioos:station:wmo:42049:1,2011-02-01T20:00:00Z,28.3507,-96.0058,2.0,218.3012872,35.22099516,-99999.0,'11111222,11111222,99999999' 
TABS,ioos:station:wmo:42049:1,2011-02-01T20:30:00Z,28.3507,-96.0058,2.0,215.1183013,33.37558988,-99999.0,'11111222,11111222,99999999' 
TABS,ioos:station:wmo:42049:1,2011-02-01T21:00:00Z,28.3507,-96.0058,2.0,220.9348106,32.02056371,-99999.0,'11111222,11111222,99999999' 
TABS,ioos:station:wmo:42049:1,2011-02-01T21:30:00Z,28.3507,-96.0058,2.0,222.8151151,30.23664829,-99999.0,'11111222,11111222,99999999' 
TABS,ioos:station:wmo:42049:1,2011-02-01T22:00:00Z,28.3507,-96.0058,2.0,225.4126957,28.44764489,-99999.0,'11111222,11111222,99999999' 
TABS,ioos:station:wmo:42049:1,2011-02-01T22:30:00Z,28.3507,-96.0058,2.0,216.9750775,31.50605339,-99999.0,'11111222,11111222,99999999' 
TABS,ioos:station:wmo:42049:1,2011-02-01T23:00:00Z,28.3507,-96.0058,2.0,221.9212234,34.36548414,-99999.0,'11111222,11111222,99999999' 
TABS,ioos:station:wmo:42049:1,2011-02-01T23:30:00Z,28.3507,-96.0058,2.0,226.3531047,27.54242183,-99999.0,'11111222,11111222,99999999' 
TABS,ioos:station:wmo:42049:1,2011-02-02T00:00:00Z,28.3507,-96.0058,2.0,216.9282454,29.31001535,-99999.0,'11111222,11111222,99999999' 
TABS,ioos:station:wmo:42049:1,2011-02-02T00:30:00Z,28.3507,-96.0058,2.0,222.3129212,25.34228088,-99999.0,'11111222,11111222,99999999' 
TABS,ioos:station:wmo:42049:1,2011-02-02T01:00:00Z,28.3507,-96.0058,2.0,221.4968004,25.80811694,-99999.0,'11111222,11111222,99999999' 
TABS,ioos:station:wmo:42049:1,2011-02-02T01:30:00Z,28.3507,-96.0058,2.0,225.5004561,27.50750443,-99999.0,'11111222,11111222,99999999' 
TABS,ioos:station:wmo:42049:1,2011-02-02T02:00:00Z,28.3507,-96.0058,2.0,224.3350315,27.43051768,-99999.0,'11111222,11111222,99999999' 
TABS,ioos:station:wmo:42049:1,2011-02-02T02:30:00Z,28.3507,-96.0058,2.0,231.2460808,20.99134345,-99999.0,'11111222,11111222,99999999' 
TABS,ioos:station:wmo:42049:1,2011-02-02T03:00:00Z,28.3507,-96.0058,2.0,224.4686756,22.12632143,-99999.0,'11111222,11111222,99999999' 
TABS,ioos:station:wmo:42049:1,2011-02-02T03:30:00Z,28.3507,-96.0058,2.0,238.4643756,22.86704397,-99999.0,'11111222,11111222,99999999' 
TABS,ioos:station:wmo:42049:1,2011-02-02T04:00:00Z,28.3507,-96.0058,2.0,230.903152,20.8997799,-99999.0,'11111222,11111222,99999999' 
TABS,ioos:station:wmo:42049:1,2011-02-02T04:30:00Z,28.3507,-96.0058,2.0,227.9722264,22.22598704,-99999.0,'11111222,11111222,99999999' 
TABS,ioos:station:wmo:42049:1,2011-02-02T05:00:00Z,28.3507,-96.0058,2.0,232.9336412,21.61812665,-99999.0,'11111222,11111222,99999999' 
TABS,ioos:station:wmo:42049:1,2011-02-02T05:30:00Z,28.3507,-96.0058,2.0,241.9585871,18.23000274,-99999.0,'11111222,11111222,99999999' 
TABS,ioos:station:wmo:42049:1,2011-02-02T06:00:00Z,28.3507,-96.0058,2.0,227.2303275,19.98383847,-99999.0,'11111222,11111222,99999999' 
TABS,ioos:station:wmo:42049:1,2011-02-02T06:30:00Z,28.3507,-96.0058,2.0,227.676858,17.25809955,-99999.0,'11111222,11111222,99999999' 
TABS,ioos:station:wmo:42049:1,2011-02-02T07:00:00Z,28.3507,-96.0058,2.0,242.3941666,15.51639778,-99999.0,'11111222,11111222,99999999' 
TABS,ioos:station:wmo:42049:1,2011-02-02T07:30:00Z,28.3507,-96.0058,2.0,229.2099451,21.76691986,-99999.0,'11111222,11111222,99999999' 
TABS,ioos:station:wmo:42049:1,2011-02-02T08:00:00Z,28.3507,-96.0058,2.0,219.8807506,18.46549485,-99999.0,'11111222,11111222,99999999' 
TABS,ioos:station:wmo:42049:1,2011-02-02T08:30:00Z,28.3507,-96.0058,2.0,221.8970667,16.59183233,-99999.0,'11111222,11111222,99999999' 
TABS,ioos:station:wmo:42049:1,2011-02-02T09:00:00Z,28.3507,-96.0058,2.0,222.0401318,15.20185844,-99999.0,'11111222,11111222,99999999' 
TABS,ioos:station:wmo:42049:1,2011-02-02T09:30:00Z,28.3507,-96.0058,2.0,227.0018673,16.39367256,-99999.0,'11111222,11111222,99999999' 
TABS,ioos:station:wmo:42049:1,2011-02-02T10:00:00Z,28.3507,-96.0058,2.0,222.9155464,18.66582439,-99999.0,'11111222,11111222,99999999' 
TABS,ioos:station:wmo:42049:1,2011-02-02T10:30:00Z,28.3507,-96.0058,2.0,235.0337571,12.58094591,-99999.0,'11111222,11111222,99999999' 
TABS,ioos:station:wmo:42049:1,2011-02-02T11:00:00Z,28.3507,-96.0058,2.0,213.9970235,12.93024748,-99999.0,'11111222,11111222,99999999' 
TABS,ioos:station:wmo:42049:1,2011-02-02T11:30:00Z,28.3507,-96.0058,2.0,223.4173341,11.52316363,-99999.0,'11111222,11111222,99999999' 
TABS,ioos:station:wmo:42049:1,2011-02-02T12:00:00Z,28.3507,-96.0058,2.0,218.8493172,9.89990909,-99999.0,'11133222,11111222,99999999' 
TABS,ioos:station:wmo:42049:1,2011-02-02T12:30:00Z,28.3507,-96.0058,2.0,222.5214649,12.42841905,-99999.0,'11111222,11111222,99999999' 
TABS,ioos:station:wmo:42049:1,2011-02-02T13:00:00Z,28.3507,-96.0058,2.0,221.814668,8.654212847,-99999.0,'11133222,11111222,99999999' 
TABS,ioos:station:wmo:42049:1,2011-02-02T13:30:00Z,28.3507,-96.0058,2.0,220.7467279,15.35113351,-99999.0,'11111222,11111222,99999999' 
TABS,ioos:station:wmo:42049:1,2011-02-02T14:00:00Z,28.3507,-96.0058,2.0,230.6172518,16.46983303,-99999.0,'11111222,11111222,99999999' 
TABS,ioos:station:wmo:42049:1,2011-02-02T14:30:00Z,28.3507,-96.0058,2.0,234.5080198,14.46818579,-99999.0,'11111222,11111222,99999999' 
TABS,ioos:station:wmo:42049:1,2011-02-02T15:00:00Z,28.3507,-96.0058,2.0,230.7102641,16.06031756,-99999.0,'11111222,11111222,99999999' 
TABS,ioos:station:wmo:42049:1,2011-02-02T15:30:00Z,28.3507,-96.0058,2.0,247.2165151,14.84852181,-99999.0,'11111222,11111222,99999999' 
TABS,ioos:station:wmo:42049:1,2011-02-02T16:00:00Z,28.3507,-96.0058,2.0,239.0006535,13.94112262,-99999.0,'11111222,11111222,99999999' 
TABS,ioos:station:wmo:42049:1,2011-02-02T16:30:00Z,28.3507,-96.0058,2.0,244.020599,11.36876422,-99999.0,'11111222,11111222,99999999' 
TABS,ioos:station:wmo:42049:1,2011-02-02T17:00:00Z,28.3507,-96.0058,2.0,252.3827617,14.17477337,-99999.0,'11111222,11111222,99999999' 
TABS,ioos:station:wmo:42049:1,2011-02-02T17:30:00Z,28.3507,-96.0058,2.0,251.260989,10.73924578,-99999.0,'11111222,11111222,99999999' 
TABS,ioos:station:wmo:42049:1,2011-02-02T18:00:00Z,28.3507,-96.0058,2.0,245.682424,11.97217608,-99999.0,'11111222,11111222,99999999' 
TABS,ioos:station:wmo:42049:1,2011-02-02T18:30:00Z,28.3507,-96.0058,2.0,236.3464364,8.625589835,-99999.0,'11133222,11111222,99999999' 
TABS,ioos:station:wmo:42049:1,2011-02-02T19:00:00Z,28.3507,-96.0058,2.0,258.1008085,11.64010739,-99999.0,'11111222,11111222,99999999' 
TABS,ioos:station:wmo:42049:1,2011-02-02T19:30:00Z,28.3507,-96.0058,2.0,265.6967281,11.4623078,-99999.0,'11111222,11111222,99999999' 
TABS,ioos:station:wmo:42049:1,2011-02-02T20:00:00Z,28.3507,-96.0058,2.0,251.0440811,12.52946128,-99999.0,'11111222,11111222,99999999' 
TABS,ioos:station:wmo:42049:1,2011-02-02T20:30:00Z,28.3507,-96.0058,2.0,261.5926451,12.58523341,-99999.0,'11111222,11111222,99999999' 
TABS,ioos:station:wmo:42049:1,2011-02-02T21:00:00Z,28.3507,-96.0058,2.0,264.9857026,12.92947408,-99999.0,'11111222,11111222,99999999' 
TABS,ioos:station:wmo:42049:1,2011-02-02T21:30:00Z,28.3507,-96.0058,2.0,261.6231013,14.14085217,-99999.0,'11111222,11111222,99999999' 
TABS,ioos:station:wmo:42049:1,2011-02-02T22:00:00Z,28.3507,-96.0058,2.0,258.4474592,14.3813247,-99999.0,'11111222,11111222,99999999' 
TABS,ioos:station:wmo:42049:1,2011-02-02T22:30:00Z,28.3507,-96.0058,2.0,267.2169221,11.12311557,-99999.0,'11111222,11111222,99999999' 
TABS,ioos:station:wmo:42049:1,2011-02-02T23:00:00Z,28.3507,-96.0058,2.0,260.8024555,11.01156211,-99999.0,'11111222,11111222,99999999' 
TABS,ioos:station:wmo:42049:1,2011-02-02T23:30:00Z,28.3507,-96.0058,2.0,262.4079487,12.64079903,-99999.0,'11111222,11111222,99999999' 
TABS,ioos:station:wmo:42049:1,2011-02-03T00:00:00Z,28.3507,-96.0058,2.0,259.090202,11.7829453,-99999.0,'11111222,11111222,99999999' 
TABS,ioos:station:wmo:42049:1,2011-02-03T00:30:00Z,28.3507,-96.0058,2.0,261.7288192,16.12774008,-99999.0,'11111222,11111222,99999999' 
TABS,ioos:station:wmo:42049:1,2011-02-03T01:00:00Z,28.3507,-96.0058,2.0,266.4283708,13.96712211,-99999.0,'11111222,11111222,99999999' 
TABS,ioos:station:wmo:42049:1,2011-02-03T01:30:00Z,28.3507,-96.0058,2.0,256.7070682,15.13549801,-99999.0,'11111222,11111222,99999999' 
TABS,ioos:station:wmo:42049:1,2011-02-03T02:00:00Z,28.3507,-96.0058,2.0,252.3291785,15.87920968,-99999.0,'11111222,11111222,99999999' 
TABS,ioos:station:wmo:42049:1,2011-02-03T02:30:00Z,28.3507,-96.0058,2.0,249.8565278,21.11126003,-99999.0,'11111222,11111222,99999999' 
TABS,ioos:station:wmo:42049:1,2011-02-03T03:00:00Z,28.3507,-96.0058,2.0,248.4014542,19.37000258,-99999.0,'11111222,11111222,99999999' 
TABS,ioos:station:wmo:42049:1,2011-02-03T03:30:00Z,28.3507,-96.0058,2.0,264.376383,18.26790902,-99999.0,'11111222,11111222,99999999' 
TABS,ioos:station:wmo:42049:1,2011-02-03T04:00:00Z,28.3507,-96.0058,2.0,264.8721559,19.35746109,-99999.0,'11111222,11111222,99999999' 
TABS,ioos:station:wmo:42049:1,2011-02-03T04:30:00Z,28.3507,-96.0058,2.0,258.2925538,16.41139238,-99999.0,'11111222,11111222,99999999' 
TABS,ioos:station:wmo:42049:1,2011-02-03T05:00:00Z,28.3507,-96.0058,2.0,262.3464923,20.72460374,-99999.0,'11111222,11111222,99999999' 
TABS,ioos:station:wmo:42049:1,2011-02-03T05:30:00Z,28.3507,-96.0058,2.0,262.9813413,19.96962694,-99999.0,'11111222,11111222,99999999' 
TABS,ioos:station:wmo:42049:1,2011-02-03T06:00:00Z,28.3507,-96.0058,2.0,264.5072674,20.3735343,-99999.0,'11111222,11111222,99999999' 
TABS,ioos:station:wmo:42049:1,2011-02-03T06:30:00Z,28.3507,-96.0058,2.0,261.5016692,20.70734169,-99999.0,'11111222,11111222,99999999' 
TABS,ioos:station:wmo:42049:1,2011-02-03T07:00:00Z,28.3507,-96.0058,2.0,275.0238673,20.32808156,-99999.0,'11111222,11111222,99999999' 
TABS,ioos:station:wmo:42049:1,2011-02-03T07:30:00Z,28.3507,-96.0058,2.0,258.6501861,19.91952058,-99999.0,'11111222,11111222,99999999' 
TABS,ioos:station:wmo:42049:1,2011-02-03T08:00:00Z,28.3507,-96.0058,2.0,258.1253371,20.50885906,-99999.0,'11111222,11111222,99999999' 
TABS,ioos:station:wmo:42049:1,2011-02-03T08:30:00Z,28.3507,-96.0058,2.0,257.3454836,21.82000229,-99999.0,'11111222,11111222,99999999' 
TABS,ioos:station:wmo:42049:1,2011-02-03T09:00:00Z,28.3507,-96.0058,2.0,256.7606457,21.09051446,-99999.0,'11111222,11111222,99999999' 
TABS,ioos:station:wmo:42049:1,2011-02-03T09:30:00Z,28.3507,-96.0058,2.0,246.0482861,20.88871705,-99999.0,'11111222,11111222,99999999' 
TABS,ioos:station:wmo:42049:1,2011-02-03T10:00:00Z,28.3507,-96.0058,2.0,245.2578976,25.15955882,-99999.0,'11111222,11111222,99999999' 
TABS,ioos:station:wmo:42049:1,2011-02-03T10:30:00Z,28.3507,-96.0058,2.0,240.6418942,28.45421761,-99999.0,'11111222,11111222,99999999' 
TABS,ioos:station:wmo:42049:1,2011-02-03T11:00:00Z,28.3507,-96.0058,2.0,241.4814779,28.73675173,-99999.0,'11111222,11111222,99999999' 
TABS,ioos:station:wmo:42049:1,2011-02-03T11:30:00Z,28.3507,-96.0058,2.0,242.643216,29.46524224,-99999.0,'11111222,11111222,99999999' 
TABS,ioos:station:wmo:42049:1,2011-02-03T12:00:00Z,28.3507,-96.0058,2.0,247.4583511,28.04233407,-99999.0,'11111222,11111222,99999999' 
TABS,ioos:station:wmo:42049:1,2011-02-03T12:30:00Z,28.3507,-96.0058,2.0,241.9886818,30.12942913,-99999.0,'11111222,11111222,99999999' 
TABS,ioos:station:wmo:42049:1,2011-02-03T13:00:00Z,28.3507,-96.0058,2.0,239.5845166,26.50803652,-99999.0,'11111222,11111222,99999999' 
TABS,ioos:station:wmo:42049:1,2011-02-03T13:30:00Z,28.3507,-96.0058,2.0,244.325169,29.63595283,-99999.0,'11111222,11111222,99999999' 
TABS,ioos:station:wmo:42049:1,2011-02-03T14:00:00Z,28.3507,-96.0058,2.0,244.0559373,29.69225657,-99999.0,'11111222,11111222,99999999' 
TABS,ioos:station:wmo:42049:1,2011-02-03T14:30:00Z,28.3507,-96.0058,2.0,249.1151043,33.07286048,-99999.0,'11111222,11111222,99999999' 
TABS,ioos:station:wmo:42049:1,2011-02-03T15:00:00Z,28.3507,-96.0058,2.0,252.6394821,33.54818177,-99999.0,'11111222,11111222,99999999' 
TABS,ioos:station:wmo:42049:1,2011-02-03T15:30:00Z,28.3507,-96.0058,2.0,249.1484226,31.35339854,-99999.0,'11111222,11111222,99999999' 
TABS,ioos:station:wmo:42049:1,2011-02-03T16:00:00Z,28.3507,-96.0058,2.0,253.8755826,29.95848461,-99999.0,'11111222,11111222,99999999' 
TABS,ioos:station:wmo:42049:1,2011-02-03T16:30:00Z,28.3507,-96.0058,2.0,255.9986653,31.49568224,-99999.0,'11111222,11111222,99999999' 
TABS,ioos:station:wmo:42049:1,2011-02-03T17:00:00Z,28.3507,-96.0058,2.0,262.4161123,30.53708892,-99999.0,'11111222,11111222,99999999' 
TABS,ioos:station:wmo:42049:1,2011-02-03T17:30:00Z,28.3507,-96.0058,2.0,258.9125193,28.23701471,-99999.0,'11111222,11111222,99999999' 
TABS,ioos:station:wmo:42049:1,2011-02-03T18:00:00Z,28.3507,-96.0058,2.0,256.8625937,31.06293772,-99999.0,'11111222,11111222,99999999' 
TABS,ioos:station:wmo:42049:1,2011-02-03T18:30:00Z,28.3507,-96.0058,2.0,261.5100823,29.5336029,-99999.0,'11111222,11111222,99999999' 
TABS,ioos:station:wmo:42049:1,2011-02-03T19:00:00Z,28.3507,-96.0058,2.0,265.7048059,27.90836792,-99999.0,'11111222,11111222,99999999' 
TABS,ioos:station:wmo:42049:1,2011-02-03T19:30:00Z,28.3507,-96.0058,2.0,268.3528385,25.75063494,-99999.0,'11111222,11111222,99999999' 
TABS,ioos:station:wmo:42049:1,2011-02-03T20:00:00Z,28.3507,-96.0058,2.0,260.0733568,27.20728028,-99999.0,'11111222,11111222,99999999' 
TABS,ioos:station:wmo:42049:1,2011-02-03T20:30:00Z,28.3507,-96.0058,2.0,254.034967,28.61358069,-99999.0,'11111222,11111222,99999999' 
TABS,ioos:station:wmo:42049:1,2011-02-03T21:00:00Z,28.3507,-96.0058,2.0,259.619239,29.85868885,-99999.0,'11111222,11111222,99999999' 
TABS,ioos:station:wmo:42049:1,2011-02-03T21:30:00Z,28.3507,-96.0058,2.0,257.015044,25.63548322,-99999.0,'11111222,11111222,99999999' 
TABS,ioos:station:wmo:42049:1,2011-02-03T22:00:00Z,28.3507,-96.0058,2.0,252.6976905,25.58782914,-99999.0,'11111222,11111222,99999999' 
TABS,ioos:station:wmo:42049:1,2011-02-03T22:30:00Z,28.3507,-96.0058,2.0,251.6412253,26.03505521,-99999.0,'11111222,11111222,99999999' 
TABS,ioos:station:wmo:42049:1,2011-02-03T23:00:00Z,28.3507,-96.0058,2.0,253.5949834,25.70648167,-99999.0,'11111222,11111222,99999999' 
TABS,ioos:station:wmo:42049:1,2011-02-03T23:30:00Z,28.3507,-96.0058,2.0,252.765614,22.78289051,-99999.0,'11111222,11111222,99999999' 
TABS,ioos:station:wmo:42049:1,2011-02-04T00:00:00Z,28.3507,-96.0058,2.0,265.7892504,21.92918147,-99999.0,'11111222,11111222,99999999' 
TABS,ioos:station:wmo:42049:1,2011-02-04T00:30:00Z,28.3507,-96.0058,2.0,254.4226761,22.64160993,-99999.0,'11111222,11111222,99999999' 
TABS,ioos:station:wmo:42049:1,2011-02-04T01:00:00Z,28.3507,-96.0058,2.0,249.1098641,23.10899608,-99999.0,'11111222,11111222,99999999' 
TABS,ioos:station:wmo:42049:1,2011-02-04T01:30:00Z,28.3507,-96.0058,2.0,255.5717476,22.35503075,-99999.0,'11111222,11111222,99999999' 
TABS,ioos:station:wmo:42049:1,2011-02-04T02:00:00Z,28.3507,-96.0058,2.0,248.671004,24.3046333,-99999.0,'11111222,11111222,99999999' 
TABS,ioos:station:wmo:42049:1,2011-02-04T02:30:00Z,28.3507,-96.0058,2.0,253.4200323,21.09712777,-99999.0,'11111222,11111222,99999999' 
TABS,ioos:station:wmo:42049:1,2011-02-04T03:00:00Z,28.3507,-96.0058,2.0,256.8417228,21.04243807,-99999.0,'11111222,11111222,99999999' 
TABS,ioos:station:wmo:42049:1,2011-02-04T03:30:00Z,28.3507,-96.0058,2.0,245.6192625,20.88216464,-99999.0,'11111222,11111222,99999999' 
TABS,ioos:station:wmo:42049:1,2011-02-04T04:00:00Z,28.3507,-96.0058,2.0,249.4506294,19.03089068,-99999.0,'11111222,11111222,99999999' 
TABS,ioos:station:wmo:42049:1,2011-02-04T04:30:00Z,28.3507,-96.0058,2.0,242.8328259,18.30993446,-99999.0,'11111222,11111222,99999999' 
TABS,ioos:station:wmo:42049:1,2011-02-04T05:00:00Z,28.3507,-96.0058,2.0,237.7041237,20.513342,-99999.0,'11111222,11111222,99999999' 
TABS,ioos:station:wmo:42049:1,2011-02-04T05:30:00Z,28.3507,-96.0058,2.0,239.6022098,20.47450121,-99999.0,'11111222,11111222,99999999' 
TABS,ioos:station:wmo:42049:1,2011-02-04T06:00:00Z,28.3507,-96.0058,2.0,236.9461824,19.4711787,-99999.0,'11111222,11111222,99999999' 
TABS,ioos:station:wmo:42049:1,2011-02-04T06:30:00Z,28.3507,-96.0058,2.0,245.3361184,17.92524756,-99999.0,'11111222,11111222,99999999' 
TABS,ioos:station:wmo:42049:1,2011-02-04T07:00:00Z,28.3507,-96.0058,2.0,241.9480374,17.75588353,-99999.0,'11111222,11111222,99999999' 
TABS,ioos:station:wmo:42049:1,2011-02-04T07:30:00Z,28.3507,-96.0058,2.0,243.5195983,15.07111476,-99999.0,'11111222,11111222,99999999' 
TABS,ioos:station:wmo:42049:1,2011-02-04T08:00:00Z,28.3507,-96.0058,2.0,244.7607277,13.71971574,-99999.0,'11111222,11111222,99999999' 
TABS,ioos:station:wmo:42049:1,2011-02-04T08:30:00Z,28.3507,-96.0058,2.0,227.3750649,17.572561,-99999.0,'11111222,11111222,99999999' 
TABS,ioos:station:wmo:42049:1,2011-02-04T09:00:00Z,28.3507,-96.0058,2.0,227.8126036,15.1291011,-99999.0,'11111222,11111222,99999999' 
TABS,ioos:station:wmo:42049:1,2011-02-04T09:30:00Z,28.3507,-96.0058,2.0,227.0199001,16.64857051,-99999.0,'11111222,11111222,99999999' 
TABS,ioos:station:wmo:42049:1,2011-02-04T10:00:00Z,28.3507,-96.0058,2.0,229.5150879,14.9096613,-99999.0,'11111222,11111222,99999999' 
TABS,ioos:station:wmo:42049:1,2011-02-04T10:30:00Z,28.3507,-96.0058,2.0,214.9662166,16.55913645,-99999.0,'11111222,11111222,99999999' 
TABS,ioos:station:wmo:42049:1,2011-02-04T11:00:00Z,28.3507,-96.0058,2.0,215.781428,19.37749468,-99999.0,'11111222,11111222,99999999' 
TABS,ioos:station:wmo:42049:1,2011-02-04T11:30:00Z,28.3507,-96.0058,2.0,226.8421993,15.39460295,-99999.0,'11111222,11111222,99999999' 
TABS,ioos:station:wmo:42049:1,2011-02-04T12:00:00Z,28.3507,-96.0058,2.0,227.1024675,16.38055249,-99999.0,'11111222,11111222,99999999' 
TABS,ioos:station:wmo:42049:1,2011-02-04T12:30:00Z,28.3507,-96.0058,2.0,218.928293,16.31252893,-99999.0,'11111222,11111222,99999999' 
TABS,ioos:station:wmo:42049:1,2011-02-04T13:00:00Z,28.3507,-96.0058,2.0,234.0942497,14.85210423,-99999.0,'11111222,11111222,99999999' 
TABS,ioos:station:wmo:42049:1,2011-02-04T13:30:00Z,28.3507,-96.0058,2.0,219.498424,13.86659295,-99999.0,'11111222,11111222,99999999' 
TABS,ioos:station:wmo:42049:1,2011-02-04T14:00:00Z,28.3507,-96.0058,2.0,220.844599,14.54098002,-99999.0,'11111222,11111222,99999999' 
TABS,ioos:station:wmo:42049:1,2011-02-04T14:30:00Z,28.3507,-96.0058,2.0,216.9765812,14.99602614,-99999.0,'11111222,11111222,99999999' 
TABS,ioos:station:wmo:42049:1,2011-02-04T15:00:00Z,28.3507,-96.0058,2.0,226.0566796,17.24926955,-99999.0,'11111222,11111222,99999999' 
TABS,ioos:station:wmo:42049:1,2011-02-04T15:30:00Z,28.3507,-96.0058,2.0,225.4521578,14.32643012,-99999.0,'11111222,11111222,99999999' 
TABS,ioos:station:wmo:42049:1,2011-02-04T16:00:00Z,28.3507,-96.0058,2.0,232.8233767,14.9602139,-99999.0,'11111222,11111222,99999999' 